User: anonymous   Login
Location: Rometta
(44.2000°N, 10.0500°E)
Time: 04:36:57
(UTC+00:00)
Language:

Meteor 2-5 Rocket - Orbit

View from above orbital plane
View from above orbital plane
View from above satellite
View from above satellite

Ground track
Ground track

The orbit data is extracted from the following two-line orbital elements,

1 11608U 79095B   21101.89574739  .00000003  00000-0 -54345-5 0  9993
2 11608  81.2105 297.4997 0053894 203.1247 156.7497 14.06172331125847
Epoch (UTC): 11 April 2021 21:29:52
Eccentricity: 0.0053894
inclination: 81.2105°
perigee height: 833 km
apogee height: 911 km
right ascension of ascending node: 297.4997°
argument of perigee: 203.1247°
revolutions per day: 14.06172331
mean anomaly at epoch: 156.7497°
orbit number at epoch: 12584

The dashed part of the orbit path shows where the satellite is in the earth's shadow,  

DLR